Terminal Aerodrome Forecast
Issued by NWS

Home | Current Version | Previous Version | Text Only | Print | Product List | Glossary On
Versions: 1 2 3 4 5 6 7 8 9 10 11 12 13 14 15 16 17 18 19 20 21 22 23 24 25 26 27 28 29 30 31 32 33 34 35 36 37 38 39 40 41 42 43 44 45 46 47 48 49 50
000
FTUS44 KHGX 031120
TAFIAH
TAF
KIAH 031120Z 0312/0418 17003KT P6SM SCT022 BKN250
     FM031500 18009G15KT P6SM SCT035 BKN250
     FM040000 16008KT P6SM FEW040 SCT250
     FM040900 18003KT P6SM BKN250
     FM041100 18004KT P6SM VCSH SCT020 BKN250
      TEMPO 0414/0416 BKN030=

USA.gov is the U.S. government's official web portal to all federal, state and local government web resources and services.